Oaxaca, Mexico

11:17 AM CST on December 13, 2017 (GMT -0600)
Xoxocotlan International

Weather History for MMOX - April, 2013

Change the Weather History Date:

Tuesday, April 30, 2013

  Actual Average Record
Temperature  
Mean Temperature 76 °F -  
Max Temperature 94 °F 84 °F 99 °F (2017)
Min Temperature 57 °F 59 °F 48 °F (1997)
Cooling Degree Days 10    
Growing Degree Days 26 (Base 50)    
Moisture  
Dew Point 43 °F    
Average Humidity 36    
Maximum Humidity 88    
Minimum Humidity 7    
Precipitation  
Precipitation 0.00 in - - ()
Sea Level Pressure  
Sea Level Pressure 29.89 in    
Wind  
Wind Speed 5 mph ()    
Max Wind Speed 22 mph    
Max Gust Speed -    
Visibility 6.4 miles    
Events      
Averages and records for this station are not official NWS values.
T = Trace of Precipitation, MM = Missing Value Source: Averaged Metar Reports

Daily Weather History Graph

Daily Weather History Graph

Search for Another Location

Airport or City:

Trip Planner

Search our weather history database for the weather conditions in past years. The results will help you decide how hot, cold, wet, or windy it might be!

Date:

Astronomy

Apr. 30, 2013 Rise Set
Actual Time 7:01 AM CDT 7:46 PM CDT
Civil Twilight 6:39 AM CDT 8:09 PM CDT
Nautical Twilight 6:12 AM CDT 8:35 PM CDT
Astronomical Twilight 5:45 AM CDT 9:02 PM CDT
Moon 12:00 AM CDT (4/30) 11:40 AM CDT (4/30)
Length of Visible Light 13h 29m
Length of Day
12h 44m
Waning Gibbous, 70% of the Moon is Illuminated
Apr 30
Waning Gibbous
May 2
Last Quarter
May 9
New
May 17
First Quarter
May 24
Full

Hourly Weather History & Observations

Time (CDT) Temp. Dew Point Humidity Pressure Visibility Wind Dir Wind Speed Gust Speed Precip Events Conditions
12:45 AM 69 °F 56 °F 53% 29.70 in 6 mi SSW 2.2 mph - -   Partly Cloudy
3:45 AM 65 °F 54 °F 60% 29.75 in 6 mi SW 2.2 mph - -   Partly Cloudy
6:11 AM 59.0 °F 53.6 °F 82% 30.11 in 6.0 mi Calm Calm - N/A   Scattered Clouds
6:45 AM 61 °F 53 °F 66% 29.84 in 7 mi South 2.2 mph - -   Partly Cloudy
6:56 AM 57.2 °F 53.6 °F 88% 29.78 in 5.0 mi South 2.3 mph - N/A   Mostly Cloudy
7:43 AM 57.2 °F 51.8 °F 82% 30.13 in 5.0 mi SW 2.3 mph - N/A   Mostly Cloudy
8:47 AM 64.4 °F 50.0 °F 59% 30.14 in 5.0 mi WSW 2.3 mph - N/A   Mostly Cloudy
9:40 AM 71 °F 47 °F 32% 29.90 in 6 mi West 2.2 mph - -   Partly Cloudy
9:48 AM 68.0 °F 44.6 °F 43% 29.82 in 5.0 mi SSE 2.3 mph - N/A   Mostly Cloudy
10:44 AM 71.6 °F 48.2 °F 43% 30.13 in 5.0 mi SSE 4.6 mph - N/A   Overcast
11:45 AM 75.2 °F 50.0 °F 41% 30.11 in 5.0 mi ESE 6.9 mph - N/A   Overcast
12:40 PM 85 °F 50 °F 20% 29.82 in 6 mi South 2.2 mph - -   Partly Cloudy
12:41 PM 78.8 °F 46.4 °F 32% 29.72 in 5.0 mi SSW 11.5 mph - N/A   Overcast
1:44 PM 82.4 °F 41.0 °F 23% 30.07 in 8.0 mi East 4.6 mph - N/A   Overcast
2:43 PM 86.0 °F 30.2 °F 13% 30.03 in 8.0 mi SSE 20.7 mph - N/A   Mostly Cloudy
3:45 PM 90 °F 35 °F 7% 29.68 in 7 mi SSE 6.7 mph - -   Partly Cloudy
3:46 PM 86.0 °F 30.2 °F 13% 29.63 in 8.0 mi SSE 21.9 mph - N/A   Mostly Cloudy
4:45 PM 86.0 °F 32.0 °F 14% 29.99 in 7.0 mi SE 13.8 mph - N/A   Overcast
5:46 PM 84.2 °F 32.0 °F 15% 29.98 in 7.0 mi South 13.8 mph - N/A   Overcast
6:45 PM 83 °F 37 °F 11% 29.62 in 9 mi SSE 4.5 mph - -   Partly Cloudy
6:45 PM 82.4 °F 33.8 °F 17% 29.67 in 7.0 mi SSE 12.7 mph - N/A   Mostly Cloudy
7:51 PM 77.0 °F 35.6 °F 22% 30.04 in 7.0 mi ESE 11.5 mph - N/A   Mostly Cloudy
8:45 PM 73.4 °F 37.4 °F 27% 30.06 in 7.0 mi SE 11.5 mph - N/A   Mostly Cloudy
9:45 PM 71.6 °F 39.2 °F 31% 29.70 in 7.0 mi SSE 8.1 mph - N/A   Partly Cloudy
9:50 PM 72 °F 41 °F 21% 29.70 in 6 mi SE 2.2 mph - -   Clear
10:45 PM 69.8 °F 39.2 °F 33% 30.12 in 7.0 mi Calm Calm - N/A   Clear